Location: W�rzburg
(49.7529°N, 9.8822°E)
Time: 19:03:56
(UTC+01:00)

ISS - Pass Details

Date: 12 January 2018
Orbit: 402 x 407 km, 51.6° (Epoch: 17 January)

Event Time Altitude Azimuth Distance (km) Brightness Sun altitude
Exits shadow 06:24:08 39° 236° (SW) 625 -3.2 -17.1°
Maximum altitude 06:24:37 43° 209° (SSW) 587 -3.2 -17.0°
Drops below altitude 10° 06:27:45 10° 137° (SE) 1,463 -0.1 -16.5°
Sets 06:29:53 0° 130° (SE) 2,321 1.2 -16.2°
